THOR ABLESTAR DEB, 355

Orbit data source: Space-Track

THOR ABLESTAR DEB, 355 is space debris in LEO originally from a launch on Thu, 29 Jun 1961 UTC launched from the Air Force Eastern Test Range (AFETR). Debris objects in space refer to the collection of defunct objects orbiting the Earth. Examples of debris include non-operational satellites, rocket bodies, and fragments generated from explosions, collisions, or faulty payload assembly.

Loading next visibility...
Identifier
355, 1961-015DV
Orbit
LEO
Last TLE update
1 day ago
Origin
Manufacturer
Unknown
Mission
Spacecraft
Bus & Motor
Unknown
Mass
Unknown
Launch date (UTC)
1961-06-29 (64 years ago)
Launch vehicle
Unknown
Launch site
Air Force Eastern Test Range (AFETR)
Object type
Payload
Rocket body
Debris
Shape & HBR
Unknown
Radar Cross Section
Medium (>0.1 m² and <1 m²)

Expand to show TLE details & history

TLE from 1 day ago
0 THOR ABLESTAR DEB
1 00355U 61015DV  25114.72507256  .00000487  00000-0  94879-3 0  9992
2 00355  67.2257 200.2759 0237444 143.5972  16.3536 13.33646383 93213
Epoch: 2025-04-24T17:24Z
Definitive object data (Epoch: 2025-04-24T17:24:06.269Z)
Latitude
17.7131°
Longitude
-101.40814°
Altitude
963.72 km
Speed
7.455 km/s
True Right ascension
00h 50m 26s
True Declination
17° 36' 59"
Sunlit
Object was in daylight at TLE epoch
Visualization TLE readout
Latitude
-24.40486°
Longitude
-85.12421°
Altitude
1,058.473 km
Speed
7.362 km/s
Apparent Right ascension
01h 31m 31s
Apparent Declination
-75° 08' 22"
Sunlit
Object is in daylight
Visualization observer readout
Local Sidereal Time
02:04:51
Azimuth
182.354° SSW
Elevation
-25.187°
Doppler factor
1
Orbital elements
Apogee altitude
1,309.741 km
Perigee altitude
953.12 km
Semi-major axis
7,509.568 km
Eccentricity
0.0237444
Inclination
67.2257°
RAAN
200.2759°
Arg. of periapsis
143.5972°
True anomaly
17.14212°
Mean anomaly
16.3536°
Eccentric anomaly
16.74558°
Mean motion
3.33519 °/min
BSTAR
0.00094879
Orbital period
107.94 mins
Loading maneuver chart data...
Loading SW <> Apogee altitude chart data...

THOR ABLESTAR DEB Visibility forecast

Observer location: undefined°, undefined°

Span
Click to sort rows by Start time (UTC) header in descending order
Start Az.
Max El. time (UTC)
Max El. Az.
Max El.
End time (UTC)
End Az.
13 mins2025-04-26 06:30:10.680Z186.535° SSW2025-04-26 06:37:10.680Z109.886° ESE39.372°2025-04-26 06:43:10.680Z38.902° NE
11 mins2025-04-26 08:23:10.680Z254.324° W2025-04-26 08:28:10.680Z306.383° NW27.953°2025-04-26 08:34:10.680Z10.573° NNE
4 mins2025-04-26 14:10:10.680Z18.487° NNE2025-04-26 14:12:10.680Z38.994° NE13.424°2025-04-26 14:14:10.680Z59.223° ENE
11 mins2025-04-26 15:59:10.680Z338.27° N2025-04-26 16:04:10.680Z55.625° ENE42.737°2025-04-26 16:10:10.680Z142.022° SSE
6 mins2025-04-26 17:52:10.680Z282.984° WNW2025-04-26 17:54:10.680Z260.585° W16.94°2025-04-26 17:58:10.680Z218.554° SW
|